This is the latest recevied weather packets stored in our database for station/object WE0DX-1. If no packets are shown the sender has not sent any weather packets the latest 10 day(s).
| Time | Temp. | Humidity | Pressure | Rain* | Wind** | Luminosity | Snow |
|---|---|---|---|---|---|---|---|
| 1777665435 | 16.67° C | 38% | 1016.9 hPa | 0 mm | - | 84 W/m² | - |
| 1777665131 | 16.67° C | 36% | 1017 hPa | 0 mm | - | 93 W/m² | - |
| 1777664219 | 18.33° C | 34% | 1017 hPa | 0 mm | - | 264 W/m² | - |
| 1777663615 | 17.22° C | 34% | 1017.2 hPa | 0 mm | - | 674 W/m² | - |
| 1777663312 | 16.67° C | 37% | 1017.2 hPa | 0 mm | - | 174 W/m² | - |
| 1777663009 | 17.22° C | 35% | 1017.2 hPa | 0 mm | - | 164 W/m² | - |
| 1777662398 | 16.67° C | 36% | 1017.2 hPa | 0 mm | - | 142 W/m² | - |
| 1777662098 | 16.67° C | 36% | 1017.1 hPa | 0 mm | - | 183 W/m² | - |
| 1777661794 | 16.67° C | 36% | 1017.6 hPa | 0 mm | - | 132 W/m² | - |
| 1777660578 | 17.22° C | 34% | 1017.5 hPa | 0 mm | - | 419 W/m² | - |
| 1777660275 | 16.11° C | 37% | 1017.4 hPa | 0 mm | - | 793 W/m² | - |
| 1777659971 | 16.67° C | 35% | 1017.5 hPa | 0 mm | - | 146 W/m² | - |
| 1777659668 | 17.22° C | 35% | 1017.7 hPa | 0 mm | - | 261 W/m² | - |
| 1777659365 | 17.78° C | 36% | 1017.4 hPa | 0 mm | - | 806 W/m² | - |
| 1777659062 | 16.67° C | 37% | 1017.6 hPa | 0 mm | - | 760 W/m² | - |
| 1777658760 | 16.67° C | 36% | 1017.6 hPa | 0 mm | - | 760 W/m² | - |
| 1777658455 | 16.67° C | 34% | 1017.6 hPa | 0 mm | - | 748 W/m² | - |
| 1777657244 | 17.22° C | 40% | 1018.1 hPa | 0 mm | - | 673 W/m² | - |
| 1777656638 | 16.67° C | 35% | 1018.1 hPa | 0 mm | - | 713 W/m² | - |
| 1777655726 | 16.67° C | 35% | 1018.3 hPa | 0 mm | - | 807 W/m² | - |
| 1777655422 | 16.67° C | 38% | 1018.1 hPa | 0 mm | - | 796 W/m² | - |
| 1777653302 | 15.56° C | 39% | 1018.3 hPa | 0 mm | - | 863 W/m² | - |
| 1777652695 | 15.56° C | 38% | 1018.3 hPa | 0 mm | - | 871 W/m² | - |
| 1777652089 | 15.56° C | 37% | 1018.4 hPa | 0 mm | - | 835 W/m² | - |
| 1777651786 | 15.56° C | 38% | 1018.3 hPa | 0 mm | - | 807 W/m² | - |
* Rain latest hour (hover to see other rain measurements)
** Current wind speed in m/s (hover to see current wind gust speed)